This demonstration page uses our WeatherBlox Daily Observations layout. Learn more.

Hourly Observations for November 2, 2015

Temp ( °F °C ) Dew Point ( °F °C ) Humidity (%) Winds ( mph kmh ) Pressure ( in mb ) Visibility ( mi km ) Precip ( " mm )
12:15 am 00:15 Clear 57 14 41 5 55 55 WSW 7 11 29.8 1009 10 16.09344 0 0
12:35 am 00:35 Clear 57 14 41 5 55 55 WSW 6 9 29.8 1009 10 16.09344 0 0
12:55 am 00:55 Clear 55 13 41 5 59 59 WSW 6 9 29.8 1009 10 16.09344 0 0
1:15 am 01:15 Clear 55 13 41 5 59 59 SW 5 7 29.8 1009 10 16.09344 0 0
1:35 am 01:35 Clear 55 13 41 5 59 59 W 8 13 29.8 1009 10 16.09344 0 0
1:55 am 01:55 Clear 57 14 41 5 55 55 WSW 8 13 29.8 1009 10 16.09344 0 0
2:15 am 02:15 Clear 54 12 41 5 63 63 SW 3 6 29.8 1009 10 16.09344 0 0
2:35 am 02:35 Clear 55 13 41 5 59 59 SW 8 13 29.8 1009 10 16.09344 0 0
2:55 am 02:55 Clear 52 11 41 5 67 67 SSW 7 11 29.8 1009 10 16.09344 0 0
3:15 am 03:15 Clear 52 11 41 5 67 67 SSW 7 11 29.8 1009 10 16.09344 0 0
3:35 am 03:35 Clear 48 9 39 4 71 71 S 7 11 29.83 1010 10 16.09344 0 0
3:55 am 03:55 Clear 46 8 39 4 76 76 S 3 6 29.83 1010 10 16.09344 0 0
4:15 am 04:15 Clear 46 8 39 4 76 76 SSW 7 11 29.83 1010 10 16.09344 0 0
4:35 am 04:35 Clear 48 9 39 4 71 71 SSW 5 7 29.83 1010 10 16.09344 0 0
4:55 am 04:55 Clear 46 8 39 4 76 76 S 5 7 29.83 1010 10 16.09344 0 0
5:15 am 05:15 Clear 46 8 39 4 76 76 S 6 9 29.83 1010 10 16.09344 0 0
5:35 am 05:35 Clear 48 9 39 4 71 71 SSW 7 11 29.83 1010 10 16.09344 0 0
5:55 am 05:55 Clear 48 9 39 4 71 71 S 7 11 29.83 1010 10 16.09344 0 0
6:15 am 06:15 Clear 46 8 39 4 76 76 S 7 11 29.83 1010 10 16.09344 0 0
6:35 am 06:35 Clear 46 8 37 3 71 71 S 8 13 29.83 1010 10 16.09344 0 0
6:55 am 06:55 Clear 45 7 37 3 76 76 S 5 7 29.85 1011 10 16.09344 0 0
7:15 am 07:15 Sunny 45 7 37 3 76 76 SW 6 9 29.85 1011 10 16.09344 0 0
7:35 am 07:35 Sunny 45 7 37 3 76 76 SW 3 6 29.88 1012 10 16.09344 0 0
7:55 am 07:55 Sunny 48 9 39 4 71 71 SW 6 9 29.85 1011 10 16.09344 0 0
8:15 am 08:15 Sunny 48 9 39 4 71 71 WSW 5 7 29.85 1011 10 16.09344 0 0
8:35 am 08:35 Sunny 52 11 39 4 62 62 SW 5 7 29.85 1011 10 16.09344 0 0
8:55 am 08:55 Sunny 52 11 39 4 62 62 SW 6 9 29.88 1012 10 16.09344 0 0
9:15 am 09:15 Sunny 55 13 41 5 59 59 SW 5 7 29.85 1011 10 16.09344 0 0
9:35 am 09:35 Sunny 57 14 41 5 55 55 SW 5 7 29.85 1011 10 16.09344 0 0
9:55 am 09:55 Sunny 59 15 43 6 55 55 SSW 5 7 29.83 1010 10 16.09344 0 0
10:15 am 10:15 Sunny 61 16 43 6 52 52 SW 3 6 29.83 1010 10 16.09344 0 0
10:35 am 10:35 Sunny 63 17 43 6 49 49 SSW 3 6 29.83 1010 10 16.09344 0 0
10:55 am 10:55 Sunny 63 17 43 6 49 49 SSW 5 7 29.83 1010 10 16.09344 0 0
11:15 am 11:15 Sunny 64 18 43 6 46 46 S 6 9 29.83 1010 10 16.09344 0 0
11:35 am 11:35 Sunny 66 19 41 5 40 40 S 7 11 29.8 1009 10 16.09344 0 0
11:55 am 11:55 Sunny 70 21 41 5 35 35 S 3 6 29.77 1008 10 16.09344 0 0
12:15 pm 12:15 Sunny 72 22 39 4 31 31 S 6 9 29.74 1007 10 16.09344 0 0
12:35 pm 12:35 Sunny 73 23 39 4 29 29 SSW 5 7 29.74 1007 10 16.09344 0 0
12:55 pm 12:55 Sunny 73 23 37 3 27 27 S 9 15 29.71 1006 10 16.09344 0 0
1:15 pm 13:15 Sunny 75 24 37 3 25 25 S 10 17 29.71 1006 10 16.09344 0 0
1:35 pm 13:35 Sunny 75 24 37 3 25 25 S 9 15 29.71 1006 10 16.09344 0 0
1:55 pm 13:55 Sunny 77 25 36 2 22 22 S 13 20 29.68 1005 10 16.09344 0 0
2:15 pm 14:15 Sunny 77 25 36 2 22 22 S 13 20 29.65 1004 10 16.09344 0 0
2:35 pm 14:35 Sunny 77 25 37 3 24 24 SSE 12 19 29.65 1004 10 16.09344 0 0
2:55 pm 14:55 Sunny 77 25 36 2 22 22 S 15 24 29.65 1004 10 16.09344 0 0
3:15 pm 15:15 Sunny 75 24 37 3 25 25 S 15 24 29.68 1005 10 16.09344 0 0
3:35 pm 15:35 Sunny 75 24 37 3 25 25 S 15 24 29.68 1005 10 16.09344 0 0
3:55 pm 15:55 Sunny 73 23 37 3 27 27 S 12 19 29.68 1005 10 16.09344 0 0
4:15 pm 16:15 Sunny 73 23 39 4 29 29 SSE 10 17 29.68 1005 10 16.09344 0 0
4:35 pm 16:35 Sunny 73 23 39 4 29 29 SSE 9 15 29.68 1005 10 16.09344 0 0
4:55 pm 16:55 Sunny 72 22 39 4 31 31 SSE 10 17 29.68 1005 10 16.09344 0 0
5:15 pm 17:15 Sunny 70 21 39 4 33 33 SSE 9 15 29.68 1005 10 16.09344 0 0
5:35 pm 17:35 Clear 66 19 39 4 37 37 SSE 9 15 29.71 1006 10 16.09344 0 0
5:55 pm 17:55 Clear 63 17 39 4 42 42 SSE 8 13 29.77 1008 10 16.09344 0 0
6:15 pm 18:15 Clear 61 16 39 4 45 45 SSE 9 15 29.77 1008 10 16.09344 0 0
6:35 pm 18:35 Clear 59 15 39 4 48 48 SSE 8 13 29.77 1008 10 16.09344 0 0
6:55 pm 18:55 Clear 63 17 39 4 42 42 SSE 13 20 29.77 1008 10 16.09344 0 0
7:15 pm 19:15 Clear 61 16 39 4 45 45 SE 12 19 29.77 1008 10 16.09344 0 0
7:35 pm 19:35 Clear 59 15 39 4 48 48 SSE 8 13 29.77 1008 10 16.09344 0 0
7:55 pm 19:55 Clear 57 14 39 4 51 51 SSE 10 17 29.8 1009 10 16.09344 0 0
8:15 pm 20:15 Clear 61 16 41 5 48 48 SSE 12 19 29.77 1008 10 16.09344 0 0
8:35 pm 20:35 Clear 59 15 41 5 51 51 S 12 19 29.77 1008 10 16.09344 0 0
8:55 pm 20:55 Clear 59 15 41 5 51 51 S 15 24 29.77 1008 10 16.09344 0 0
9:15 pm 21:15 Clear 59 15 41 5 51 51 S 10 17 29.77 1008 10 16.09344 0 0
9:35 pm 21:35 Clear 57 14 41 5 55 55 S 13 20 29.8 1009 10 16.09344 0 0
9:55 pm 21:55 Clear 59 15 41 5 51 51 S 15 24 29.77 1008 10 16.09344 0 0
10:15 pm 22:15 Clear 55 13 41 5 59 59 SSE 10 17 29.8 1009 10 16.09344 0 0
10:35 pm 22:35 Clear 55 13 41 5 59 59 SSE 9 15 29.8 1009 10 16.09344 0 0
10:55 pm 22:55 Clear 55 13 43 6 63 63 SSE 10 17 29.8 1009 10 16.09344 0 0
11:15 pm 23:15 Clear 55 13 43 6 63 63 S 13 20 29.8 1009 10 16.09344 0 0
11:35 pm 23:35 Clear 55 13 45 7 67 67 SSE 14 22 29.8 1009 10 16.09344 0 0
11:55 pm 23:55 Clear 55 13 45 7 67 67 SSE 14 22 29.8 1009 10 16.09344 0 0

Powered by AerisWeather